Погода Теплый Ключ

Погода Теплый Ключ : погода сейчас, прогноз погоды и архив. Всё, что Вы хотите узнать о погоде Теплый Ключ!

Хотите узнать прогноз погоды Теплый Ключ? Тогда Вам сюда: Погода Теплый Ключ

Поиск расширенной информации на нашем сайте:

Другие новости

Новости СМИ2

Главная страница сайта

Новости сайта

03.07.2017

Напоминаем, что на нашем специализированном сайте Метеоцентр.Азия вы можете получить высокодетализированные автоматические прогнозы погоды по пунктам России, СНГ и мира в авиационном формате (включающие направление и скорость ветра, видимость, явления погоды, количество и форму облачности, нижнюю и верхнюю границу облачности).


Погода Теплый Ключ - сегодня

Время (UTC), дата Ветер
(°,м/с) 
Видим.   Явления Облачность Т
(°С)
Тd
(°С)
f(%) Тe
(°С)
Pmin
(гПа)
dP
(гПа)
Po
(мм)
O2
(г/м3)
Тmin Tmax R s Состояние
почвы
06 18.02.18 тихо ()   н/о    н/о 
-26 -33.9 47 -26  1021.5  -0.7  736  330           
09 18.02.18 тихо ()   н/о    н/о 
-35.9 -39.9 67 -36  1023  0.1  736  344    -25.7       
12 18.02.18 090 (В) н/о    н/о 
-42.3 -46.9 60 -44  1024.5  0.2  736  353           
15 18.02.18 100 (В) н/о    н/о 
-44.6 -49.4 59 -46  1024.1  -0.7  736  356           
18 18.02.18 110 (В) н/о    н/о 
-45.8 -50.7 58 -47  1023.8  -0.5  735  358           
00 19.02.18 100 (В) 20000 м    ясно 
-42.6 -44.9 78 -44  1022.8  -0.2  735  353  -46.5         
03 19.02.18 тихо ()   20000 м    ясно 
-30.3 -34.1 69 -30  1019.8  -0.6  735  335           
06 19.02.18 тихо ()   20000 м    ясно 
-27 -30.1 75 -27  1019.2  -0.1  734  330           
09 19.02.18 260 (З) 10 км    ясно 
-34.3 -37.8 71 -35  1021.2  0.7  735  341    -26.8       
12 19.02.18 100 (В) н/о    н/о 
-42.4 -46.9 61 -44  1022.8  0.1  735  353           
15 19.02.18 070 (В) н/о    н/о 
-44.8 -49.7 58 -46  1022.4  0.1  734  356           
18 19.02.18 080 (В) н/о    н/о 
-45.8 -50.8 57 -47  1021.5  -1  734  357           
00 20.02.18 060 (СВ) 20000 м    ясно 
-43.9 -46.1 78 -45  1020.5  -0.2  733  354  -46.9         
03 20.02.18 тихо ()   20000 м    ясно 
-30.8 -34.5 70 -31  1017.6  -0.5  733  335           
06 20.02.18 тихо ()   20000 м    ясно 
-28.6 -32.4 70 -29  1017.3  733  332           
09 20.02.18 тихо ()   10 км    ясно 
-37.5 -41.8 64 -38  1019.7  0.9  734  345    -28.6       
12 20.02.18 090 (В) н/о    н/о 
-43.2 -47.8 61 -45  1021.4  0.7  734  353           
15 20.02.18 080 (В) н/о    н/о 
-45.2 -50.2 57 -47  1021.3  -0.5  734  356           
18 20.02.18 090 (В) н/о    н/о 
-45.9 -51 56 -47  1021.2  -0.3  734  357           
00 21.02.18 120 (ЮВ) 20000 м    ясно 
-42.9 -45.5 76 -44  1021.3  0.5  734  353  -46.7         
03 21.02.18 140 (ЮВ) 20000 м    ясно 
-30.8 -34.5 70 -32  1019.2  0.1  734  335           
09 21.02.18 260 (З) 10 км    ясно 
-33.7 -35.9 80 -35  1021.3  1.2  735  340    -26.2       
12 21.02.18 100 (В) н/о    н/о 
-40.6 -45.2 61 -45  1023.6  1.1  736  350           
15 21.02.18 070 (В) н/о    н/о 
-43.3 -48 60 -45  1024.5  1.1  736  355           
18 21.02.18 070 (В) н/о    н/о 
-43.4 -48.2 59 -45  1024.3  -0.2  736  355           
Время (UTC), дата Ветер
(°,м/с) 
Видим.   Явления Облачность Т
(°С)
Тd
(°С)
f(%) Тe
(°С)
Pmin
(гПа)
dP
(гПа)
Po
(мм)
O2
(г/м3)
Тmin Tmax R s Состояние
почвы

Для получения пояснительной информации подведите курсор к названию столбца.

ПОГОДА Теплый Ключ - архив

Всё, что Вы хотите узнать о погоде Теплый Ключ - удобно и подробно!

Выберите нужную дату (начиная с 1 января 2015* года) и нажмите кнопку "Найти".
Будут отображены архивные сводки погоды по пункту Теплый Ключ, начиная с указанной даты.


Отображать данные в формате CSV (для использования в таблицах Excel)


Внимание! Наш архив погоды предназначен исключительно для личного некоммерческого использования в познавательных целях. Если Вам необходимы официальные справки о состоянии погоды (для производственных, юридических, коммерческих и т.п. целей), обращайтесь в органы Росгидромета.

*Примечание: данная дата относится к архиву по метеостанциям СССР (Россия, СНГ, Балтия).
Архив по метеостанциям Зарубежной Европы и Азии (кроме Китая) хранится 10 дней, по другим регионам земного шара (Китай, Африка, Америка, Австралия, Океания) - 1 день.

Теплый Ключ - район местоположения метеостанции


Название, широта, долгота, высота метеостанции:
Теплый Ключ 62.8°ш. 136.8°д. 289 м над ур. моря [Российская Федерация]

Дополнительная информация

В oтличие oт бoльшинства пoгoдных сайтoв мы публикуем пoдрoбную метеoинфoрмацию в детальнoм прoфессиoнальнoм фoрмате.

Характеристики температуры и влажнoсти вoздуха измеряются на высoте 2 м в тени вдали oт зданий и деревьев.
Скoрoсть ветра измеряется на высoте 10 м (на урoвне рoста челoвека скoрoсть ветра ниже в 1.5-2 раза). Если метеoстанция нахoдится в гoрoде или в лесу, тo скoрoсть ветра занижена на 2-4 м/с пo сравнению с oткрытым местoм. Скoрoсть ветра над акватoриями крупных рек и oзёр, а также на вершинах хoлмoв на 2-5 м/с выше, чем в oбычных услoвиях.
Атмoсфернoе давление в разных тoчках местнoсти мoжет значительнo oтличаться oт давления на метеoстанции, в зависимoсти oт услoвий рельефа (при пoдъёме на 10 м давление пoнижается примернo на 1 мм рт.ст.).